Shawbury, United Kingdom

7:29 AM BST on April 23, 2017 (GMT +0100)
Shawbury

Weather History for 03414 - December, 2013

Change the Weather History Date:

Tuesday, December 3, 2013

  Actual Average Record
Temperature  
Mean Temperature 44 °F -  
Max Temperature 47 °F 43 °F - ()
Min Temperature 40 °F 33 °F - ()
Degree Days  
Heating Degree Days 22    
Moisture  
Dew Point 39 °F    
Average Humidity 82    
Maximum Humidity 93    
Minimum Humidity 70    
Precipitation  
Precipitation 0.00 in - - ()
Sea Level Pressure  
Sea Level Pressure 30.36 in    
Wind  
Wind Speed 4 mph ()    
Max Wind Speed 13 mph    
Max Gust Speed -    
Visibility 6.8 miles    
Events      
T = Trace of Precipitation, MM = Missing Value Source: Averaged Metar Reports

Daily Weather History Graph

Daily Weather History Graph

Search for Another Location

Airport or City:

Trip Planner

Search our weather history database for the weather conditions in past years. The results will help you decide how hot, cold, wet, or windy it might be!

Date:

Astronomy

Dec. 03, 2013 Rise Set
Actual Time 8:03 AM GMT 3:57 PM GMT
Civil Twilight 7:22 AM GMT 4:38 PM GMT
Nautical Twilight 6:38 AM GMT 5:22 PM GMT
Astronomical Twilight 5:56 AM GMT 6:04 PM GMT
Moon 8:13 AM GMT (12/3) 4:49 PM GMT (12/3)
Length of Visible Light 9h 16m
Length of Day
7h 54m
New Moon, 0% of the Moon is Illuminated
Dec 3
New Moon
Dec 9
First Quarter
Dec 17
Full
Dec 25
Last Quarter
Jan 1
New

Hourly Weather History & Observations

Time (GMT) Temp. Windchill Dew Point Humidity Pressure Visibility Wind Dir Wind Speed Gust Speed Precip Events Conditions
12:00 AM 42 °F - 38 °F 79% 30.48 in 11 mi SW 3.5 mph - -   Overcast
12:50 AM 41.0 °F 39.0 °F 37.4 °F 87% 30.45 in 6.2 mi West 3.5 mph - N/A   Overcast
1:50 AM 42.8 °F - 37.4 °F 81% 30.45 in 6.2 mi SW 2.3 mph - N/A   Overcast
2:50 AM 41.0 °F - 37.4 °F 87% 30.42 in 6.2 mi SW 2.3 mph - N/A   Overcast
3:00 AM 42 °F - 38 °F 79% 30.45 in 8 mi SW 2.3 mph - -   Overcast
3:50 AM 41.0 °F 35.8 °F 35.6 °F 81% 30.42 in 6.2 mi SSW 8.1 mph - N/A   Overcast
4:50 AM 41.0 °F 36.4 °F 35.6 °F 81% 30.39 in 6.2 mi SW 6.9 mph - N/A   Overcast
5:50 AM 42.8 °F - 35.6 °F 76% 30.39 in 6.2 mi SW 1.2 mph - N/A   Overcast
6:00 AM 42 °F - 36 °F 73% 30.41 in 7 mi SW 1.2 mph - -  
6:50 AM 41.0 °F 36.4 °F 37.4 °F 87% 30.39 in 6.2 mi SW 6.9 mph - N/A   Overcast
7:50 AM 41.0 °F 38.0 °F 37.4 °F 87% 30.39 in 6.2 mi SW 4.6 mph - N/A   Mostly Cloudy
8:50 AM 41.0 °F 39.0 °F 39.2 °F 93% 30.39 in 6.2 mi SW 3.5 mph - N/A   Mostly Cloudy
9:00 AM 42 °F - 38 °F 82% 30.41 in 12 mi SW 3.5 mph - -   Overcast
9:50 AM 42.8 °F 41.1 °F 37.4 °F 81% 30.39 in 6.2 mi SW 3.5 mph - N/A   Mostly Cloudy
10:50 AM 44.6 °F 43.1 °F 39.2 °F 81% 30.36 in 6.2 mi South 3.5 mph - N/A   Mostly Cloudy
11:50 AM 44.6 °F 43.1 °F 39.2 °F 81% 30.36 in 6.2 mi SW 3.5 mph - N/A   Mostly Cloudy
12:00 PM 45 °F - 40 °F 75% 30.38 in 9 mi SW 3.5 mph - -   Mostly Cloudy
12:50 PM 46.4 °F 45.2 °F 39.2 °F 76% 30.33 in 6.2 mi SSW 3.5 mph - N/A   Mostly Cloudy
1:50 PM 46.4 °F 42.9 °F 41.0 °F 81% 30.33 in 6.2 mi SW 6.9 mph - N/A   Mostly Cloudy
2:50 PM 46.4 °F 41.9 °F 41.0 °F 81% 30.30 in 6.2 mi WSW 9.2 mph - N/A   Mostly Cloudy
3:00 PM 47 °F - 40 °F 70% 30.32 in 14 mi WSW 9.2 mph - -   Mostly Cloudy
3:50 PM 46.4 °F 42.9 °F 41.0 °F 81% 30.30 in 6.2 mi WSW 6.9 mph - N/A   Mostly Cloudy
4:50 PM 46.4 °F 43.5 °F 41.0 °F 81% 30.30 in 6.2 mi SW 5.8 mph - N/A   Mostly Cloudy
5:50 PM 44.6 °F 40.7 °F 41.0 °F 87% 30.30 in 5.6 mi WSW 6.9 mph - N/A   Haze
6:00 PM 45 °F - 41 °F 80% 30.32 in 6 mi WSW 6.9 mph - -   Light Haze
6:50 PM 44.6 °F 40.7 °F 41.0 °F 87% 30.30 in 5.6 mi WSW 6.9 mph - N/A   Haze
7:50 PM 44.6 °F 39.7 °F 41.0 °F 87% 30.27 in 5.6 mi SW 9.2 mph - N/A   Haze
9:00 PM 41 °F - 38 °F 87% 30.30 in 4 mi SW 8.1 mph - -   Light Haze
9:50 PM 42.8 °F 39.3 °F 41.0 °F 93% 30.27 in 5.0 mi WSW 5.8 mph - N/A   Haze
10:50 PM 46.4 °F 40.7 °F 42.8 °F 87% 30.27 in 6.2 mi West 12.7 mph - N/A   Scattered Clouds
11:50 PM 44.6 °F 40.2 °F 41.0 °F 87% 30.27 in 6.2 mi SSW 8.1 mph - N/A   Mostly Cloudy